Location: Bédejun
(44.0167°N, 6.3500°E)
Time: 22:14:48
(UTC+00:00)

Daily predictions for brighter satellites

Satellite Brightness Start Highest point End
(mag) Time Altitude Azimuth Time Altitude Azimuth Time Altitude Azimuth
Tsikada Rocket 4.1 16:46:41 10° S 16:52:50 86° W 16:59:03 10° N
USA 81 4.2 16:49:43 10° S 16:54:59 82° W 17:00:17 10° N
BlueWalker 3 3.5 16:53:52 10° NW 16:56:37 20° N 16:59:22 10° NE
BREEZE-M DEB (TANK) 1.3 16:54:46 10° WSW 16:57:07 65° NNW 16:59:49 10° ENE
Cosmos 1455 1.7 16:56:19 10° N 16:59:32 89° E 17:02:44 10° S
Cosmos 2219 Rocket 3.7 16:54:59 10° WSW 17:00:00 33° NW 17:05:04 10° N
Cosmos 2278 Rocket 2.3 16:54:27 10° NNW 17:00:04 59° ENE 17:05:38 10° SE
SJ-7 4.4 16:56:39 10° SSE 17:00:19 50° ENE 17:04:01 10° N
ARGOS Delta rocket 3.7 16:56:12 10° SSE 17:00:50 66° ENE 17:05:18 10° N
COSMO-SKYMED 1 3.5 16:58:45 10° NE 17:02:29 28° E 17:06:12 10° SSE
ISS -3.7 16:59:24 10° SW 17:02:44 75° SE 17:06:04 10° ENE
CZ-4C R/B 2.5 16:59:21 10° S 17:03:04 31° ESE 17:07:32 10° NE
CSL-04 DEB 4.2 17:00:56 10° SSE 17:04:46 71° ENE 17:08:34 10° N
Cosmos 2084 Rocket 3.9 17:01:57 10° NW 17:05:58 61° SW 17:09:53 10° SSE
Meteor 1-21 4.2 17:01:47 10° S 17:07:22 87° E 17:13:03 10° N
CORIOLIS 4.4 17:04:09 10° S 17:09:34 78° WSW 17:15:02 10° NNW
Cosmos 1763 Rocket 3.6 17:05:26 10° SSW 17:10:38 82° WNW 17:15:50 10° NNE
Spot 4 Rocket 4.0 17:06:00 10° SSE 17:11:07 86° ENE 17:16:17 10° NNW
YAOGAN 1 3.8 17:08:53 10° ESE 17:12:04 21° ENE 17:15:15 10° NNE
ATLAS 5 CENTAUR R/B 2.7 17:11:02 10° SSE 17:12:54 15° ESE 17:14:21 12° E
Cosmos 1733 Rocket 3.1 17:11:26 10° N 17:15:47 57° E 17:20:07 10° SSE
Cosmos 540 Rocket 3.5 17:11:14 10° SSW 17:16:21 88° ESE 17:21:31 10° NNE
Landsat 7 4.2 17:13:43 10° SE 17:18:02 39° ENE 17:22:24 10° N
Cosmos 468 Rocket 3.9 17:15:05 10° SSW 17:20:16 75° ESE 17:25:26 10° NNE
USA 215 4.2 17:16:41 10° NE 17:22:31 36° NNW 17:28:20 10° W
Cosmos 2228 Rocket 3.1 17:19:30 10° S 17:23:59 70° E 17:28:33 10° NNE
Cosmos 2279 Rocket 4.0 17:21:47 10° N 17:28:00 89° W 17:34:11 10° S
Cosmos 841 Rocket 3.9 17:24:49 10° S 17:29:45 43° ESE 17:34:43 10° NNE
NOSS 8 (A) 4.2 17:26:49 10° NNW 17:29:47 63° NE 17:33:22 10° SE
Cosmos 1898 Rocket 3.6 17:25:32 10° NNW 17:30:44 53° ENE 17:35:55 10° SE
PSLV R/B 4.1 17:28:00 10° S 17:32:00 59° W 17:36:02 10° NNW
Dummy Sat-01 4.5 17:28:58 10° S 17:32:38 79° E 17:36:19 10° N
Aureole 1 Rocket 4.3 17:27:18 10° NNW 17:34:59 72° ENE 17:41:44 10° SSE
Cosmos 1703 4.0 17:32:20 10° SSE 17:35:16 25° E 17:36:27 21° ENE
Okean 1-7 3.1 17:33:34 10° S 17:37:42 51° E 17:41:52 10° NNE
SL-16 R/B 3.1 17:33:19 10° SSE 17:37:59 27° ESE 17:40:55 18° ENE
Cosmos 1980 3.8 17:32:40 10° SSW 17:38:19 84° WNW 17:44:00 10° NNE
Cosmos 1953 2.6 17:40:51 10° NNW 17:44:32 64° W 17:48:12 10° S
SKYMED 2 3.5 17:46:18 10° NNE 17:50:40 90° ENE 17:55:01 10° SSW
Cosmos 1092 Rocket 4.4 17:47:09 10° SSE 17:52:41 37° E 17:58:17 10° NNE
Cosmos 1818 4.0 17:48:10 10° NNW 17:53:19 40° NE 17:56:19 22° ESE
ACS3 Solar Sail 1.8 17:48:25 10° SSE 17:54:45 69° ENE 18:01:07 10° N
ATLAS 2AS CENTAUR R/B 3.0 17:48:27 10° NNW 17:54:55 43° NE 17:59:05 21° ESE
COSMOS 2428 4.4 17:50:55 10° WSW 17:55:53 30° NW 18:00:52 10° N
Cosmos 2369 Rocket 3.2 17:51:52 10° N 17:56:24 24° NE 17:56:55 24° ENE
Cosmos 372 Rocket 3.9 17:55:40 10° NNW 18:00:46 88° WSW 18:05:51 10° SSE
DNEPR-1 R/B 4.0 18:00:53 10° NW 18:05:32 64° WSW 18:09:42 10° SSE
BREEZE-M DEB (TANK) 3.8 17:58:02 10° W 18:05:58 45° NNW 18:07:22 31° NE
Cosmos 1908 Rocket 3.4 18:04:32 10° N 18:08:52 65° E 18:13:07 10° SSE
Meteor 2-12 Rocket 4.4 18:03:58 10° S 18:09:56 63° E 18:15:58 10° NNE
Meteor 1-31 Rocket 2.6 18:07:42 10° S 18:11:14 75° W 18:14:49 10° NNW
EO 1 Delta rocket 4.1 18:09:57 10° N 18:14:37 68° WNW 18:19:16 10° SSW
Cosmos 2297 4.1 18:14:20 10° NNW 18:19:44 40° ENE 18:20:17 39° ENE
CZ-2C R/B 4.3 18:22:19 20° N 18:22:19 20° N 18:23:28 10° N
Cosmos 1937 Rocket 3.5 18:15:37 10° NNW 18:20:47 80° WSW 18:25:57 10° SSE
Cosmos 2026 Rocket 4.0 18:15:01 10° S 18:21:18 66° E 18:27:36 10° NNE
Cosmos 1932 4.3 18:16:44 10° SSW 18:22:52 72° ESE 18:25:50 33° NE
Cosmos 858 Rocket 4.4 18:20:08 10° NNW 18:25:22 86° ENE 18:30:36 10° SSE
Cosmos 1825 4.2 18:22:50 10° S 18:23:11 13° S 18:23:11 13° S
BREEZE-M DEB (TANK) 3.6 18:12:52 10° WSW 18:27:12 70° NNW 18:28:55 41° NE
Cosmos 1428 Rocket 4.5 18:21:57 10° S 18:28:11 82° W 18:34:23 10° N
Cosmos 1943 Rocket 3.7 18:24:24 10° NW 18:29:31 36° WSW 18:34:34 10° S
RESURS DK-1 4.4 18:26:45 10° NW 18:30:13 28° WSW 18:33:40 10° SSW
Cosmos 2237 Rocket 3.6 18:27:30 10° WSW 18:32:42 36° NW 18:37:57 10° N
BlueWalker 3 3.2 18:31:37 10° NW 18:33:53 30° NNW 18:33:53 30° NNW
COSMO-SKYMED 1 4.5 18:34:51 10° N 18:38:36 29° WNW 18:42:20 10° SW
ISS -1.9 18:36:48 10° WNW 18:39:01 25° NW 18:39:01 25° NW
YAOGAN 1 3.9 18:43:43 10° SSW 18:47:43 38° W 18:51:44 10° NNW
CZ-4C R/B 3.1 18:47:02 10° WSW 18:51:12 36° NW 18:53:04 27° N
ATLAS 5 CENTAUR R/B 3.0 18:52:49 10° WSW 18:54:38 26° W 18:54:38 26° W
Meteor 1-24 Rocket 3.7 18:50:28 10° S 18:56:22 84° E 18:58:08 48° NNE
SPOT 1/Viking Rocket 4.1 18:53:51 10° S 18:58:54 56° W 19:03:58 10° NNW
USA 215 4.4 19:03:32 28° NNE 19:04:25 28° N 19:09:49 10° NW
Meteor 2-5 Rocket 3.7 19:01:15 10° S 19:06:59 84° W 19:07:38 71° N
Cosmos 1656 Rocket 4.0 19:08:49 10° NNW 19:14:14 62° WSW 19:14:50 58° SW
SL-16 R/B 3.0 19:16:22 10° SW 19:21:49 47° WNW 19:22:50 42° NNW
BREEZE-M DEB (TANK) 4.5 18:55:18 10° SW 19:24:12 71° SSE 19:25:37 63° ESE
ACS3 Solar Sail 4.2 19:34:12 10° SW 19:38:49 21° W 19:43:29 10° NW
Cosmos 2369 Rocket 3.4 19:35:18 10° NNW 19:38:45 37° NW 19:38:45 37° NW
ATLAS 2AS CENTAUR R/B 3.4 19:39:29 10° NW 19:45:50 45° WSW 19:46:35 44° SW
